Location: Ca�n Batista
(41.4099°N, 1.7752°E)
Time: 14:44:58
(UTC+00:00)

COSMOS 2428 - Pass Details

Date: 03 March 2021
Orbit: 845 x 858 km, 70.9° (Epoch: 22 April)

Event Time Altitude Azimuth Distance (km) Brightness Sun altitude
Rises 19:14:51 0° 179° (S) 3,388 5.8 -17.4°
Reaches altitude 10° 19:17:26 10° 172° (S) 2,457 5.0 -17.9°
Maximum altitude 19:22:35 38° 105° (ESE) 1,270 3.1 -18.9°
Enters shadow 19:24:42 28° 63° (ENE) 1,537 3.6 -19.3°
